Location: Siratepeler Tepesi
(39.1042°N, 32.0781°E)
Time: 00:41:29
(UTC+00:00)

CZ-2D R/B - Pass Details

Date: 11 April 2026
Orbit: 523 x 594 km, 98.0° (Epoch: 11 May)

Event Time Altitude Azimuth Distance (km) Brightness Sun altitude
Rises 16:44:12 0° 171° (S) 2,786 6.7 -4.5°
Reaches altitude 10° 16:46:22 10° 174° (S) 1,882 5.8 -4.9°
Maximum altitude 16:50:26 71° 257° (WSW) 606 3.8 -5.6°
Drops below altitude 10° 16:54:26 10° 343° (NNW) 1,855 6.5 -6.4°
Sets 16:56:34 0° 345° (NNW) 2,742 7.4 -6.8°
